Weather in Kara-Khaak

Russia / Tyva Republic     51°53′14″N   94°27′28″E
temp.,
°C
wind,
m/s
gust,
m/s
humid.,
%
clouds,
%
prec.,
mm/h
press.,
hPa
HPBL,
m
29 november, mon
mon2901:00−15se1197100 0.5 104429
04:00−15ese1197100 0.4 104419
07:00−15e1196100 0.7 104615
10:00−14sse1195100 0.2 104672
13:00−12sse1294100 0.3 1044150
16:00−15ese1199100 0.0 104414
19:00−15ene2292100 0.0 104414
22:00−16ene229098 0.0 104413
30 november, tue
tue3001:00−17ene228939 0.0 104312
04:00−16e228984 0.0 104213
07:00−18e229076 0.0 104211
10:00−16ese119176 0.0 104223
13:00−13s119238 0.0 103994
16:00−16e119850 0.0 104010
19:00−16ene2292100 0.0 104011
22:00−16e2192100 0.0 104112
1 december, wed
wed101:00−18e229236 0.0 104211
04:00−19ene229140 0.0 104211
07:00−19ene229355 0.0 104311
10:00−16ese119339 0.0 104320
13:00−14s219550 0.0 1041102
16:00−17ese119824 0.0 104211
19:00−18ene229362 0.0 104311
22:00−18ene229114 0.0 104313
2 december, thu
thu201:00−19e229063 0.0 104312
04:00−20ene229038 0.0 104311
07:00−20ene229142 0.0 104311
10:00−17ese119242 0.0 104223
13:00−14s229114 0.0 103989
16:00−17e11967 0.0 103912
19:00−18ene22916 0.0 104011
22:00−19ene228932 0.0 104111
3 december, fri
fri301:00−20e228731 0.0 104011
04:00−20ene228825 0.0 104011
07:00−21ene228918 0.0 104011
10:00−18ese119135 0.0 103921
13:00−15s229220 0.0 103582
16:00−18ese119865 0.0 103514
19:00−19e229375 0.0 103413
22:00−19e228825 0.0 103314